• Processing (Info)

  • MPEC 2013-P64 : 2013 PD26

    The following Minor Planet Electronic Circular may be linked-to from your own Web pages, but must not otherwise be redistributed electronically.

    A form allowing access to any MPEC is at the bottom of this page.


    Read MPEC 2013-P63 Read MPEC 2013-P65


    M.P.E.C. 2013-P64                                Issued 2013 Aug. 12, 21:33 UT
    
         The Minor Planet Electronic Circulars contain information on unusual
             minor planets and routine data on comets.  They are published
       on behalf of Commission 20 of the International Astronomical Union by the
              Minor Planet Center, Smithsonian Astrophysical Observatory,
                              Cambridge, MA 02138, U.S.A.
    
                 Prepared using the Tamkin Foundation Computer Network
    
                                  MPC@CFA.HARVARD.EDU
                URL https://www.minorplanetcenter.net/    ISSN 1523-6714
    
                                       2013 PD26
    
    Observations:
         K13P26D* C2013 08 02.40074 20 42 17.704-25 25 30.77         21.2 wLEP064F51
         K13P26D  C2013 08 02.41438 20 42 18.664-25 25 50.89         21.2 wLEP064F51
         K13P26D  C2013 08 02.42803 20 42 19.628-25 26 11.02         21.2 wLEP064F51
         K13P26D  C2013 08 02.44169 20 42 20.583-25 26 31.29         21.3 wLEP064F51
         K13P26D KC2013 08 02.93497120 43 03.16 -25 38 04.9          21.3  qEP064K91
         K13P26D KC2013 08 02.94355620 43 03.78 -25 38 17.3          21.2  qEP064K91
         K13P26D KC2013 08 02.95213420 43 04.40 -25 38 29.8          21.2  qEP064K91
         K13P26D _C2013 08 09.37314520 52 46.430-28 09 10.48         21.6 RtEP064568
         K13P26D _C2013 08 09.37439720 52 46.533-28 09 12.15         21.5 RtEP064568
         K13P26D _C2013 08 09.37565120 52 46.630-28 09 13.75         21.4 RtEP064568
    
    Observer details:
    568 Mauna Kea.  Observers R. J. Wainscoat, M. Micheli, P. Forshay.  Measurers
        M. Micheli, R. J. Wainscoat.  3.6-m Canada-France-Hawaii Telescope + CCD.
    F51 Pan-STARRS 1, Haleakala.  Observers N. Primak, A. Schultz, T. Goggia,
        K. Chambers.  Measurer PS1 Science Consortium.  1.8-m Ritchey-Chretien
        + CCD.
    K91 Sutherland-LCOGT A.  Observer T. Lister.  1.0-m f/8 Ritchey-Chretien + CCD.
    
    Orbital elements:
    2013 PD26                                                Earth MOID = 0.2469 AU
    Epoch 2013 Apr. 18.0 TT = JDT 2456400.5                 MPC
    M 319.73947              (2000.0)            P               Q
    n   0.32911885     Peri.  205.17584     +0.79120879     +0.60294562
    a   2.0776268      Node   117.35855     -0.53981026     +0.76711299
    e   0.3960237      Incl.    6.60784     -0.28739091     +0.21907587
    P   2.99           H   23.3           G   0.15           U   7
    Residuals in seconds of arc
    130802 F51  0.0   0.0     130802 K91  0.1-  0.2-    130809 568  0.0   0.0
    130802 F51  0.0   0.1+    130802 K91  0.1-  0.0     130809 568  0.0   0.1+
    130802 F51  0.0   0.1+    130802 K91  0.1-  0.0
    130802 F51  0.0   0.1-    130809 568  0.0   0.0
    
    Ephemeris:
    2013 PD26                a,e,i = 2.08, 0.40, 7                   q = 1.2548
    Date    TT    R. A. (2000) Decl.     Delta      r     Elong.  Phase     V
    2013 07 13    20 16 38.2 -17 32 03   0.2907  1.3023   168.0     9.3    21.8
    ...
    2013 07 28    20 34 52.3 -23 11 40   0.2567  1.2716   175.6     3.5    21.2
    ...
    2013 08 05    20 46 03.8 -26 27 58   0.2500  1.2614   170.0     8.0    21.4
    ...
    2013 08 11    20 55 22.1 -28 43 58   0.2500  1.2568   165.2    11.9    21.5
    2013 08 12    20 57 00.2 -29 04 53   0.2504  1.2563   164.4    12.6    21.5
    2013 08 13    20 58 39.7 -29 25 11   0.2509  1.2559   163.6    13.2    21.6
    ...
    2013 08 19    21 09 06.2 -31 12 26   0.2564  1.2549   159.0    16.8    21.7
    ...
    2013 08 27    21 24 04.5 -32 50 18   0.2696  1.2576   153.6    20.9    22.0
    ...
    2013 09 11    21 53 40.1 -33 22 29   0.3114  1.2754   145.4    26.7    22.5
    
    A. U. Tomatic                (C) Copyright 2013 MPC           M.P.E.C. 2013-P64
    

    Read MPEC 2013-P63 Read MPEC 2013-P65


    MPEC number:

    Enter an MPEC number in one of the following forms:

    • 1997-B01 (the full form)
    • J97B01 (the packed version of the full form)
    • B01 (the abbreviated form)